HB9TUF-13 Weather Reports


Display with metric or nautical units.
time (UTC)temp
F
wind
direction
speed
MPH
gust
MPH
rain 1hr
in
rain 24hr
in
rain mn
in
humidity
%
barometer
mb
20260502231444 57 125 0.0 0.0 0.00 0.14 0.00 100
20260502225900 57 125 0.0 0.0 0.00 0.14 0.00 100
20260502224316 59 125 0.0 0.0 0.00 0.15 0.00 100
20260502222732 59 125 0.0 0.0 0.00 0.15 0.00 100
20260502221148 59 125 0.0 0.0 0.00 0.15 0.00 100
20260502215604 59 125 0.0 0.0 0.00 0.15 0.00 100
20260502214020 59 125 0.0 0.0 0.00 0.15 0.00 100
20260502212435 59 126 0.0 0.0 0.00 0.15 0.00 100
20260502210852 59 126 0.0 0.0 0.00 0.15 0.00 100
20260502203724 60 126 0.0 0.0 0.00 0.16 0.00 100
20260502202140 60 126 0.0 0.0 0.00 0.16 0.00 100
20260502200556 62 126 0.0 0.0 0.00 0.17 0.00 100
20260502195013 62 126 0.0 0.0 0.00 0.17 0.00 100
20260502193429 64 126 0.0 0.0 0.00 0.18 0.00 100
20260502191846 64 127 0.0 0.0 0.00 0.18 0.00 100
20260502190302 66 127 0.0 0.0 0.00 0.19 0.00 100
20260502184719 68 127 0.0 0.0 0.00 0.20 0.00 100
20260502183136 69 127 0.0 0.0 0.00 0.21 0.00 100
20260502181553 71 127 0.0 0.0 0.00 0.22 0.00 100
20260502164139 84 132 0.0 0.0 0.00 0.29 0.00 100
20260502162557 87 132 0.0 0.0 0.00 0.31 0.00 100
20260502152311 91 130 0.0 0.0 0.00 0.33 0.00 100
20260502150729 93 129 0.0 0.0 0.00 0.34 0.00 100
20260502112748 91 127 0.0 0.0 0.00 0.33 0.00 100
20260502111206 87 127 0.0 0.0 0.00 0.31 0.00 100
20260502104043 84 128 0.0 0.0 0.00 0.29 0.00 100
20260502102501 84 128 0.0 0.0 0.00 0.29 0.00 100
20260502100919 86 128 0.0 0.0 0.00 0.30 0.00 100
20260502090632 77 130 0.0 0.0 0.00 0.25 0.00 100
20260502070100 59 142 0.0 0.0 0.00 0.15 0.00 100
20260502064518 57 143 0.0 0.0 0.00 0.14 0.00 100
20260502061353 51 144 0.0 0.0 0.00 0.11 0.00 100
20260502055810 50 144 0.0 0.0 0.00 0.10 0.00 100
20260502054225 48 140 0.0 0.0 0.00 0.09 0.00 100
20260502052641 46 138 0.0 0.0 0.00 0.08 0.00 100
20260502051056 44 135 0.0 0.0 0.00 0.07 0.00 100
20260502045511 44 132 0.0 0.0 0.00 0.07 0.00 100
20260502042340 42 125 0.0 0.0 0.00 0.06 0.00 100
20260502040754 42 124 0.0 0.0 0.00 0.06 0.00 100
20260502035209 42 124 0.0 0.0 0.00 0.06 0.00 100
20260502033623 42 124 0.0 0.0 0.00 0.06 0.00 100
20260502032037 42 124 0.0 0.0 0.00 0.06 0.00 100
20260502030452 42 124 0.0 0.0 0.00 0.06 0.00 100
20260502024906 42 124 0.0 0.0 0.00 0.06 0.00 100
20260502023321 44 124 0.0 0.0 0.00 0.07 0.00 100
20260502021735 44 124 0.0 0.0 0.00 0.07 0.00 100
20260502020150 44 125 0.0 0.0 0.00 0.07 0.00 100
20260502013019 44 125 0.0 0.0 0.00 0.07 0.00 100
20260502011433 44 125 0.0 0.0 0.00 0.07 0.00 100
20260502005848 44 125 0.0 0.0 0.00 0.07 0.00 100
20260502004303 46 125 0.0 0.0 0.00 0.08 0.00 100
20260502002718 46 125 0.0 0.0 0.00 0.08 0.00 100
20260502001132 46 125 0.0 0.0 0.00 0.08 0.00 100
20260501235547 46 125 0.0 0.0 0.00 0.08 0.00 100
20260501234002 48 125 0.0 0.0 0.00 0.09 0.00 100